EW4363 Weather Reports


Display with metric or nautical units.
time (UTC)temp
F
wind
direction
speed
MPH
gust
MPH
rain 1hr
in
rain 24hr
in
rain mn
in
humidity
%
barometer
mb
20260904192804 85 317 0.0 1.0 0.00 0.00 0.00 61 1018.8
20260904192306 85 317 0.0 1.0 0.00 0.00 0.00 61 1018.8
20260904191806 85 316 0.0 0.0 0.00 0.00 0.00 61 1018.7
20260904191305 85 316 0.0 0.0 0.00 0.00 0.00 61 1018.7
20260904190806 86 316 0.0 1.0 0.00 0.00 0.00 60 1018.7
20260904190305 86 310 0.0 0.0 0.00 0.00 0.00 60 1018.6
20260904185805 86 310 0.0 0.0 0.00 0.00 0.00 59 1018.6
20260904185306 86 310 0.0 0.0 0.00 0.00 0.00 59 1018.5
20260904184805 87 310 0.0 0.0 0.00 0.00 0.00 59 1018.4
20260904184306 87 310 0.0 2.0 0.00 0.00 0.00 58 1018.3
20260904183805 87 324 1.0 2.0 0.00 0.00 0.00 58 1018.2
20260904183305 87 325 0.0 2.0 0.00 0.00 0.00 58 1018.1
20260904182805 87 319 1.0 3.0 0.00 0.00 0.00 57 1018.0
20260904182306 88 324 1.0 3.0 0.00 0.00 0.00 57 1018.0
20260904181305 88 313 0.0 3.0 0.00 0.00 0.00 56 1017.9
20260904180806 89 320 1.0 3.0 0.00 0.00 0.00 56 1017.8
20260904175805 90 336 0.0 3.0 0.00 0.00 0.00 54 1017.5
20260904175306 90 318 2.0 3.0 0.00 0.00 0.00 53 1017.6
20260904174805 91 316 0.0 3.0 0.00 0.00 0.00 52 1017.6
20260904174306 91 320 2.0 3.0 0.00 0.00 0.00 51 1017.5
20260904173805 92 315 1.0 2.0 0.00 0.00 0.00 50 1017.4
20260904173305 92 306 0.0 2.0 0.00 0.00 0.00 49 1017.3
20260904172805 93 321 2.0 5.0 0.00 0.00 0.00 48 1017.2
20260904172306 93 313 2.0 3.0 0.00 0.00 0.00 48 1017.1
20260904171805 94 323 1.0 3.0 0.00 0.00 0.00 47 1017.1
20260904171305 94 304 1.0 6.0 0.00 0.00 0.00 47 1017.1
20260904170805 94 266 1.0 5.0 0.00 0.00 0.00 46 1017.0
20260904165805 95 316 3.0 6.0 0.00 0.00 0.00 45 1016.8
20260904164805 96 327 1.0 3.0 0.00 0.00 0.00 44 1016.7
20260904163806 97 308 1.0 3.0 0.00 0.00 0.00 43 1016.6
20260904163305 97 328 1.0 3.0 0.00 0.00 0.00 43 1016.6
20260904162806 96 326 1.0 3.0 0.00 0.00 0.00 44 1016.6
20260904162306 96 256 1.0 5.0 0.00 0.00 0.00 43 1016.6
20260904161805 97 255 2.0 3.0 0.00 0.00 0.00 44 1016.7
20260904161306 96 328 1.0 5.0 0.00 0.00 0.00 45 1016.7
20260904160805 96 308 1.0 3.0 0.00 0.00 0.00 45 1016.7
20260904160305 96 316 2.0 7.0 0.00 0.00 0.00 45 1016.7
20260904155805 96 298 1.0 7.0 0.00 0.00 0.00 46 1016.7
20260904155307 96 324 3.0 6.0 0.00 0.00 0.00 47 1016.7
20260904154805 96 303 2.0 5.0 0.00 0.00 0.00 48 1016.7
20260904154306 96 320 2.0 7.0 0.00 0.00 0.00 48 1016.7
20260904153305 97 317 2.0 8.0 0.00 0.00 0.00 47 1016.7
20260904152306 97 323 2.0 7.0 0.00 0.00 0.00 47 1016.7
20260904151806 97 307 2.0 8.0 0.00 0.00 0.00 47 1016.7
20260904151305 98 318 3.0 6.0 0.00 0.00 0.00 46 1016.6
20260904150806 98 310 5.0 7.0 0.00 0.00 0.00 46 1016.6
20260904150306 98 320 3.0 7.0 0.00 0.00 0.00 45 1016.5
20260904145306 98 322 2.0 5.0 0.00 0.00 0.00 45 1016.5
20260904144805 99 319 3.0 7.0 0.00 0.00 0.00 45 1016.5
20260904144305 99 318 3.0 7.0 0.00 0.00 0.00 44 1016.5
20260904143805 99 301 3.0 10.0 0.00 0.00 0.00 43 1016.5
20260904143305 99 318 3.0 8.0 0.00 0.00 0.00 43 1016.5
20260904141805 100 321 3.0 7.0 0.00 0.00 0.00 44 1016.4
20260904140805 100 314 2.0 6.0 0.00 0.00 0.00 43 1016.4
20260904140305 100 318 2.0 6.0 0.00 0.00 0.00 43 1016.5
20260904135805 100 313 3.0 6.0 0.00 0.00 0.00 42 1016.5
20260904135306 101 318 1.0 7.0 0.00 0.00 0.00 42 1016.4
20260904134305 101 313 3.0 6.0 0.00 0.00 0.00 40 1016.5
20260904133805 101 320 2.0 5.0 0.00 0.00 0.00 40 1016.5
20260904133305 101 314 2.0 7.0 0.00 0.00 0.00 40 1016.6
20260904132806 101 319 3.0 7.0 0.00 0.00 0.00 40 1016.5
20260904132306 100 315 2.0 7.0 0.00 0.00 0.00 39 1016.6
20260904131805 100 313 2.0 8.0 0.00 0.00 0.00 41 1016.7
20260904131305 100 317 4.0 8.0 0.00 0.00 0.00 40 1016.7
20260904130805 100 312 2.0 7.0 0.00 0.00 0.00 41 1016.7
20260904130305 100 318 3.0 6.0 0.00 0.00 0.00 41 1016.7
20260904125805 101 320 2.0 6.0 0.00 0.00 0.00 41 1016.8
20260904124306 100 320 2.0 6.0 0.00 0.00 0.00 42 1016.9
20260904123805 100 317 2.0 6.0 0.00 0.00 0.00 41 1016.9
20260904123305 100 315 5.0 8.0 0.00 0.00 0.00 40 1017.0
20260904122805 100 313 3.0 6.0 0.00 0.00 0.00 40 1017.0
20260904122306 100 320 2.0 6.0 0.00 0.00 0.00 40 1017.0
20260904121806 100 323 2.0 8.0 0.00 0.00 0.00 40 1017.1
20260904121306 100 318 2.0 7.0 0.00 0.00 0.00 38 1017.1
20260904120805 100 320 3.0 6.0 0.00 0.00 0.00 38 1017.1
20260904120305 100 333 2.0 3.0 0.00 0.00 0.00 37 1017.2
20260904115805 100 271 2.0 6.0 0.00 0.00 0.00 37 1017.3
20260904115307 100 309 1.0 3.0 0.00 0.00 0.00 36 1017.4
20260904114305 100 326 2.0 6.0 0.00 0.00 0.00 36 1017.5
20260904113805 99 326 1.0 5.0 0.00 0.00 0.00 36 1017.6
20260904113305 99 317 1.0 7.0 0.00 0.00 0.00 37 1017.6
20260904112805 99 323 3.0 6.0 0.00 0.00 0.00 36 1017.6
20260904111805 99 329 0.0 2.0 0.00 0.00 0.00 38 1017.7
20260904110805 98 332 0.0 3.0 0.00 0.00 0.00 40 1017.8
20260904110305 97 329 0.0 5.0 0.00 0.00 0.00 42 1017.9
20260904105306 96 305 0.0 3.0 0.00 0.00 0.00 44 1018.1
20260904104806 96 286 1.0 2.0 0.00 0.00 0.00 44 1018.2
20260904104306 96 284 0.0 1.0 0.00 0.00 0.00 45 1018.3
20260904103305 95 321 1.0 2.0 0.00 0.00 0.00 46 1018.4
20260904102805 95 284 0.0 3.0 0.00 0.00 0.00 46 1018.4
20260904101805 95 322 1.0 3.0 0.00 0.00 0.00 46 1018.5
20260904101306 94 329 0.0 0.0 0.00 0.00 0.00 47 1018.6
20260904100805 94 329 0.0 2.0 0.00 0.00 0.00 47 1018.6
20260904100306 94 320 0.0 1.0 0.00 0.00 0.00 48 1018.7
20260904095806 93 317 1.0 3.0 0.00 0.00 0.00 50 1018.8
20260904095306 92 322 0.0 1.0 0.00 0.00 0.00 51 1018.9
20260904094305 90 335 0.0 3.0 0.00 0.00 0.00 53 1018.9
20260904093805 90 327 0.0 2.0 0.00 0.00 0.00 53 1018.9
20260904093305 89 323 1.0 3.0 0.00 0.00 0.00 54 1018.9
20260904092806 88 284 0.0 1.0 0.00 0.00 0.00 55 1019.0
20260904092306 88 284 0.0 2.0 0.00 0.00 0.00 56 1019.0
20260904091805 88 286 1.0 3.0 0.00 0.00 0.00 55 1019.0
20260904091305 87 334 0.0 2.0 0.00 0.00 0.00 56 1019.0
20260904090805 86 328 0.0 2.0 0.00 0.00 0.00 58 1019.0
20260904090306 85 250 1.0 3.0 0.00 0.00 0.00 59 1019.0
20260904085306 84 270 2.0 6.0 0.00 0.00 0.00 61 1019.0
20260904084805 84 261 2.0 6.0 0.00 0.00 0.00 61 1019.0
20260904084305 84 320 0.0 3.0 0.00 0.00 0.00 62 1019.0
20260904083806 83 274 1.0 5.0 0.00 0.00 0.00 63 1019.1
20260904083305 83 280 1.0 3.0 0.00 0.00 0.00 64 1019.0
20260904082806 82 259 2.0 10.0 0.00 0.00 0.00 64 1019.1
20260904082306 82 271 3.0 7.0 0.00 0.00 0.00 65 1019.0
20260904081805 81 276 1.0 6.0 0.00 0.00 0.00 66 1019.0
20260904081306 81 283 3.0 5.0 0.00 0.00 0.00 67 1019.0
20260904080305 80 279 2.0 5.0 0.00 0.00 0.00 68 1019.0
20260904075806 79 277 2.0 6.0 0.00 0.00 0.00 69 1018.9
20260904075307 79 275 3.0 6.0 0.00 0.00 0.00 69 1019.0
20260904074805 79 274 2.0 8.0 0.00 0.00 0.00 70 1019.0
20260904073805 78 269 1.0 5.0 0.00 0.00 0.00 72 1019.0
20260904072805 77 271 3.0 6.0 0.00 0.00 0.00 74 1019.0
20260904072306 76 269 4.0 10.0 0.00 0.00 0.00 75 1019.1
20260904071805 76 265 3.0 6.0 0.00 0.00 0.00 76 1019.1
20260904071305 75 267 1.0 6.0 0.00 0.00 0.00 77 1019.1
20260904070306 74 267 2.0 5.0 0.00 0.00 0.00 79 1019.2
20260904065805 74 266 1.0 6.0 0.00 0.00 0.00 79 1019.2
20260904065306 74 267 1.0 5.0 0.00 0.00 0.00 80 1019.2
20260904064806 73 281 2.0 3.0 0.00 0.00 0.00 81 1019.2
20260904064306 73 283 2.0 6.0 0.00 0.00 0.00 81 1019.2
20260904062806 73 275 1.0 3.0 0.00 0.00 0.00 82 1019.1
20260904062306 73 324 1.0 3.0 0.00 0.00 0.00 83 1019.1
20260904061806 73 269 1.0 3.0 0.00 0.00 0.00 83 1019.0
20260904061306 73 268 0.0 2.0 0.00 0.00 0.00 83 1019.0
20260904060805 72 286 0.0 1.0 0.00 0.00 0.00 83 1018.9
20260904060306 72 280 1.0 2.0 0.00 0.00 0.00 84 1018.9
20260904055805 72 273 0.0 1.0 0.00 0.00 0.00 85 1018.9
20260904055306 72 275 0.0 0.0 0.00 0.00 0.00 85 1018.9
20260904054805 72 275 0.0 1.0 0.00 0.00 0.00 85 1018.8
20260904052805 72 337 0.0 0.0 0.00 0.00 0.00 86 1018.9
20260904052307 72 337 0.0 0.0 0.00 0.00 0.00 87 1018.9
20260904051306 72 337 0.0 0.0 0.00 0.00 0.00 86 1018.9
20260904050806 72 337 0.0 0.0 0.00 0.00 0.00 86 1018.8
20260904050306 72 336 0.0 0.0 0.00 0.00 0.00 86 1018.8
20260904045307 72 337 0.0 0.0 0.00 0.00 0.00 86 1018.8
20260904044806 72 338 0.0 0.0 0.00 0.00 0.00 86 1018.9
20260904044306 73 338 0.0 0.0 0.00 0.00 0.00 86 1018.9
20260904043806 73 333 0.0 0.0 0.00 0.00 0.00 85 1018.8
20260904043306 73 249 0.0 1.0 0.00 0.00 0.00 85 1018.9
20260904042806 73 250 0.0 1.0 0.00 0.00 0.00 85 1018.8
20260904041805 73 286 0.0 0.0 0.00 0.00 0.00 83 1019.0
20260904041306 74 286 0.0 0.0 0.00 0.00 0.00 83 1019.1
20260904040306 74 311 0.0 1.0 0.00 0.00 0.00 83 1019.1
20260904035806 74 271 0.0 2.0 0.00 0.00 0.00 83 1019.1
20260904034805 74 271 2.0 5.0 0.00 0.00 0.00 83 1019.2
20260904034306 74 268 2.0 6.0 0.00 0.00 0.00 83 1019.2
20260904033806 74 274 3.0 6.0 0.00 0.00 0.00 83 1019.3
20260904033305 74 271 2.0 6.0 0.00 0.00 0.00 83 1019.4
20260904032807 74 261 1.0 3.0 0.00 0.00 0.00 83 1019.4
20260904032306 74 271 2.0 3.0 0.00 0.00 0.00 83 1019.4
20260904031806 74 271 0.0 3.0 0.00 0.00 0.00 83 1019.4
20260904031306 74 296 0.0 3.0 0.00 0.00 0.00 83 1019.4
20260904030806 74 271 2.0 5.0 0.00 0.00 0.00 83 1019.5
20260904030306 74 277 1.0 3.0 0.00 0.00 0.00 83 1019.5
20260904025806 74 268 2.0 5.0 0.00 0.00 0.00 82 1019.5
20260904025307 74 282 1.0 5.0 0.00 0.00 0.00 82 1019.6
20260904024806 74 272 1.0 3.0 0.00 0.00 0.00 82 1019.6
20260904024305 74 270 1.0 3.0 0.00 0.00 0.00 82 1019.6
20260904023805 74 279 1.0 3.0 0.00 0.00 0.00 82 1019.7
20260904022806 75 258 0.0 1.0 0.00 0.00 0.00 82 1019.7
20260904022306 75 257 0.0 1.0 0.00 0.00 0.00 82 1019.7
20260904021305 75 277 1.0 3.0 0.00 0.00 0.00 82 1019.7
20260904020806 75 275 0.0 2.0 0.00 0.00 0.00 83 1019.8
20260904020305 75 272 0.0 3.0 0.00 0.00 0.00 83 1019.8
20260904015806 75 276 0.0 1.0 0.00 0.00 0.00 83 1019.8
20260904015307 75 255 1.0 3.0 0.00 0.00 0.00 83 1019.9
20260904014806 75 272 1.0 3.0 0.00 0.00 0.00 83 1019.9
20260904014306 75 273 1.0 3.0 0.00 0.00 0.00 83 1020.1
20260904013805 75 264 1.0 3.0 0.00 0.00 0.00 83 1020.1
20260904013307 75 276 0.0 3.0 0.00 0.00 0.00 83 1020.1
20260904012806 75 273 0.0 3.0 0.00 0.00 0.00 83 1020.1
20260904012306 75 263 0.0 5.0 0.00 0.00 0.00 83 1020.2
20260904011807 75 259 1.0 5.0 0.00 0.00 0.00 83 1020.2
20260904010804 75 322 1.0 3.0 0.00 0.00 0.00 83 1020.3
20260904010305 75 264 1.0 3.0 0.00 0.00 0.00 83 1020.4
20260904005306 75 274 0.0 2.0 0.00 0.00 0.00 84 1020.3
20260904004804 75 254 0.0 0.0 0.00 0.00 0.00 84 1020.3
20260904004305 75 255 0.0 0.0 0.00 0.00 0.00 84 1020.4
20260904003804 75 255 0.0 0.0 0.00 0.00 0.00 84 1020.4
20260904003305 76 255 0.0 0.0 0.00 0.00 0.00 83 1020.5
20260904002804 76 255 0.0 0.0 0.00 0.00 0.00 83 1020.6
20260904002306 76 255 0.0 1.0 0.00 0.00 0.00 83 1020.6
20260904001804 76 272 0.0 1.0 0.00 0.00 0.00 83 1020.6
20260904001305 76 264 0.0 2.0 0.00 0.00 0.00 84 1020.6
20260904000804 76 274 0.0 2.0 0.00 0.00 0.00 83 1020.7
20260904000304 76 281 0.0 0.0 0.00 0.00 0.00 83 1020.6
20260903235804 76 281 0.0 0.0 0.00 0.00 0.00 83 1020.7
20260903235305 76 283 0.0 0.0 0.00 0.00 0.00 83 1020.6
20260903234804 76 283 0.0 0.0 0.00 0.00 0.00 82 1020.8
20260903234304 76 283 0.0 0.0 0.00 0.00 0.00 82 1020.8
20260903233804 76 283 0.0 0.0 0.00 0.00 0.00 81 1020.8
20260903233304 77 283 0.0 0.0 0.00 0.00 0.00 81 1020.8
20260903232804 77 283 0.0 0.0 0.00 0.00 0.00 81 1020.8
20260903231804 77 283 0.0 0.0 0.00 0.00 0.00 81 1020.8
20260903230804 77 334 0.0 0.0 0.00 0.00 0.00 81 1020.8
20260903225306 78 333 0.0 1.0 0.00 0.00 0.00 81 1020.9
20260903224804 78 327 0.0 0.0 0.00 0.00 0.00 80 1020.9
20260903224305 78 327 0.0 0.0 0.00 0.00 0.00 81 1020.9
20260903223304 78 327 0.0 0.0 0.00 0.00 0.00 80 1020.9
20260903222805 78 327 0.0 0.0 0.00 0.00 0.00 80 1020.9
20260903222306 78 327 0.0 0.0 0.00 0.00 0.00 81 1020.9
20260903221304 78 327 0.0 0.0 0.00 0.00 0.00 79 1020.9
20260903220812 78 327 0.0 0.0 0.00 0.00 0.00 78 1020.9
20260903220305 78 327 0.0 0.0 0.00 0.00 0.00 78 1020.9
20260903215306 78 327 0.0 0.0 0.00 0.00 0.00 78 1020.9
20260903214804 78 327 0.0 0.0 0.00 0.00 0.00 78 1021.0
20260903213804 79 327 0.0 1.0 0.00 0.00 0.00 78 1020.9
20260903212804 79 328 0.0 1.0 0.00 0.00 0.00 78 1021.0
20260903211804 79 323 0.0 0.0 0.00 0.00 0.00 77 1021.0
20260903210805 79 323 0.0 0.0 0.00 0.00 0.00 77 1021.0
20260903210304 79 323 0.0 0.0 0.00 0.00 0.00 76 1020.9
20260903205804 80 323 0.0 0.0 0.00 0.00 0.00 76 1021.0
20260903205306 80 323 0.0 0.0 0.00 0.00 0.00 76 1021.0
20260903204804 80 325 0.0 1.0 0.00 0.00 0.00 76 1021.1
20260903204304 80 330 0.0 1.0 0.00 0.00 0.00 75 1021.1
20260903203805 80 331 0.0 1.0 0.00 0.00 0.00 75 1021.0
20260903203304 80 328 0.0 1.0 0.00 0.00 0.00 75 1021.1
20260903202306 80 327 0.0 1.0 0.00 0.00 0.00 74 1021.0
20260903201804 80 321 0.0 1.0 0.00 0.00 0.00 73 1021.0
20260903201305 80 323 0.0 1.0 0.00 0.00 0.00 73 1021.0
20260903200804 80 324 0.0 1.0 0.00 0.00 0.00 72 1020.9
20260903200304 80 324 0.0 2.0 0.00 0.00 0.00 72 1020.9
20260903195805 81 324 0.0 0.0 0.00 0.00 0.00 72 1020.9
20260903195306 81 327 0.0 0.0 0.00 0.00 0.00 71 1020.8
20260903194804 81 327 0.0 1.0 0.00 0.00 0.00 71 1020.8
20260903194304 81 327 0.0 0.0 0.00 0.00 0.00 70 1020.7
20260903193805 81 327 0.0 2.0 0.00 0.00 0.00 70 1020.7
20260903193304 81 326 0.0 2.0 0.00 0.00 0.00 70 1020.6